Cloud_Cover
0 0 0 0 20 7 5 5 5 3 0 0 0 3 5 5 74 99 100 92 85 86 100 100 100 100 100 94 100 100 100 100 100 100 100 100 100 100 100 100 100 100 100
0 0 0 11 6 61 6 5 5 5 9 44 3 7 39 47 99 100 78 100 100 100 100 100 100 100 100 98 93 100 100 100 100 100 100 100 100 100 100 100 100 100 100
0 0 1 0 6 84 6 5 2 5 36 97 100 57 86 100 96 98 100 100 100 100 100 100 100 100 100 100 100 100 100 100 100 100 100 100 100 100 100 100 100 100 100
0 0 0 8 1 72 7 5 5 5 5 18 90 100 48 100 86 100 100 100 100 100 100 100 100 100 100 100 100 96 92 100 100 100 100 100 100 100 100 100 100 100 100
0 0 4 0 1 23 30 10 5 15 76 94 45 54 51 87 50 87 100 100 100 94 99 100 98 100 84 100 100 100 100 100 100 100 100 100 100 100 100 100 100 100 100
0 0 8 7 5 5 52 18 5 10 66 94 100 100 12 11 100 87 100 100 100 100 100 100 100 96 100 100 100 100 100 100 100 100 100 100 100 100 100 100 100 100 100
0 0 1 5 4 5 4 7 14 29 97 97 82 100 92 32 100 100 100 100 100 48 67 78 100 100 87 99 100 100 100 100 100 100 100 100 100 100 100 100 100 100 100
0 0 2 4 4 5 4 5 5 10 71 97 100 80 57 12 100 100 100 100 100 100 100 100 76 100 100 100 100 100 100 100 100 100 100 100 100 100 100 100 100 100 100
0 0 3 1 4 0 4 4 5 72 29 95 95 100 96 65 100 100 79 100 100 100 100 100 97 98 100 98 100 100 100 100 100 100 100 100 100 100 100 99 88 96 100
0 0 1 0 5 0 1 4 5 92 100 100 41 68 100 68 100 100 100 100 100 100 100 100 100 100 100 100 100 100 100 100 100 100 100 100 100 100 100 100 100 100 100
0 0 0 0 2 1 0 0 0 53 91 100 100 96 95 100 100 100 100 100 100 100 100 100 100 100 100 100 100 100 100 100 100 100 100 100 100 100 100 100 100 100 100
0 0 0 0 0 0 0 0 0 4 53 45 62 13 92 100 100 100 100 100 100 100 100 100 100 100 100 100 100 100 100 98 99 100 100 100 99 58 100 100 100 100 100
0 0 0 0 0 0 0 0 0 0 6 48 52 52 87 100 100 100 100 100 98 100 100 100 100 100 100 99 100 99 100 100 100 100 16 20 54 95 79 41 91 22 30
0 0 0 0 0 0 0 0 0 0 0 0 8 31 8 6 28 12 85 100 100 100 100 89 27 88 77 93 100 100 68 13 5 10 78 100 83 77 66 56 30 59 100
0 0 0 0 0 0 0 0 0 0 0 0 0 0 10 13 7 32 82 80 68 36 50 80 93 89 44 15 26 46 75 71 77 87 63 42 44 92 100 100 98 52 4
0 0 0 0 0 0 0 0 24 0 0 0 0 0 0 0 0 0 2 2 5 5 5 11 13 12 22 68 97 88 100 100 100 100 100 100 70 22 4 2 5 9 16
0 0 0 0 0 0 0 0 0 0 0 0 0 0 0 0 0 0 0 0 0 1 0 0 1 2 7 20 41 57 58 46 8 5 5 5 5 5 5 11 24 87 100
1 0 0 0 0 0 0 0 0 0 0 0 42 10 10 0 0 0 0 0 1 11 0 0 0 0 1 3 1 2 5 5 5 5 5 5 5 22 66 40 92 100 100
5 2 2 0 0 0 0 0 0 0 0 0 0 11 2 2 0 0 0 0 0 0 0 0 0 4 3 5 5 5 64 62 50 13 10 17 84 100 100 100 57 100 100
5 5 5 4 3 4 0 0 0 0 0 0 0 0 0 0 0 0 0 0 0 0 1 5 5 5 5 5 6 5 6 12 22 45 69 32 90 100 93 98 100 100 100
2 0 5 4 5 3 5 0 0 0 0 0 0 0 0 0 0 0 0 0 0 0 0 0 0 2 5 4 5 5 5 5 18 6 13 100 95 74 96 100 100 100 100
5 28 6 4 5 5 2 4 0 0 0 0 0 0 0 0 0 0 0 0 0 0 0 0 0 0 0 3 6 73 62 64 91 100 93 98 100 100 94 87 100 100 100
5 70 96 28 6 5 5 5 5 5 2 3 5 0 2 2 2 2 5 5 5 5 4 3 5 5 5 5 5 5 5 32 59 52 42 90 97 86 50 81 96 98 100
44 61 31 91 98 19 20 8 5 42 30 5 5 8 5 5 2 5 97 7 5 5 5 4 5 5 5 5 5 5 9 9 9 78 98 78 100 100 100 98 100 100 100
37 57 9 97 100 81 35 88 61 87 47 12 5 5 6 28 5 5 7 5 2 0 1 4 5 5 5 5 4 5 6 24 16 83 66 81 96 100 100 100 100 100 100
93 57 72 50 100 100 86 7 63 66 65 100 100 82 62 19 43 88 89 36 34 4 5 5 3 5 28 20 7 5 6 69 100 100 78 90 73 99 100 100 100 100 100